Location: Saluda
(35.2377°N, 82.3468°W)
Time: 06:22:26
(UTC+00:00)

Vanguard 2 - Pass Details

Date: 09 October 2022
Orbit: 553 x 2933 km, 32.9° (Epoch: 26 November)

Event Time Altitude Azimuth Distance (km) Brightness Sun altitude
Rises 00:45:13 0° 276° (W) 6,432 13.8 -21.6°
Reaches altitude 10° 00:51:20 10° 260° (W) 5,642 12.9 -22.8°
Maximum altitude 01:01:35 19° 224° (SW) 5,029 12.0 -24.9°
Drops below altitude 10° 01:11:45 10° 187° (S) 5,522 11.8 -26.9°
Sets 01:17:47 0° 171° (S) 6,242 12.0 -28.1°
